Fort Bragg, NC

3:28 AM EDT on March 23, 2017 (GMT -0400)
Simmons Army Air Field

Weather History for KFBG - August, 2013

Change the Weather History Date:

Monday, August 5, 2013

  Actual Average Record
Temperature  
Mean Temperature 75 °F -  
Max Temperature 84 °F 87 °F 100 °F (2015)
Min Temperature 66 °F 69 °F 62 °F (1998)
Cooling Degree Days 10    
Growing Degree Days 25 (Base 50)    
Moisture  
Dew Point 65 °F    
Average Humidity 71    
Maximum Humidity 99    
Minimum Humidity 45    
Precipitation  
Precipitation 0.00 in - - ()
Sea Level Pressure  
Sea Level Pressure 30.05 in    
Wind  
Wind Speed 3 mph (ESE)    
Max Wind Speed 8 mph    
Max Gust Speed -    
Visibility 10 miles    
Events Rain    
Averages and records for this station are not official NWS values.
T = Trace of Precipitation, MM = Missing Value Source: NWS Daily Summary

Daily Weather History Graph

Daily Weather History Graph

Search for Another Location

Airport or City:

Trip Planner

Search our weather history database for the weather conditions in past years. The results will help you decide how hot, cold, wet, or windy it might be!

Date:

Astronomy

Aug. 05, 2013 Rise Set
Actual Time 6:28 AM EDT 8:14 PM EDT
Civil Twilight 6:00 AM EDT 8:42 PM EDT
Nautical Twilight 5:27 AM EDT 9:15 PM EDT
Astronomical Twilight 4:51 AM EDT 9:50 PM EDT
Moon 5:21 AM EDT (8/5) 7:15 PM EDT (8/5)
Length of Visible Light 14h 41m
Length of Day
13h 46m
Waning Crescent, 1% of the Moon is Illuminated
Aug 5
Waning Crescent
Aug 6
New
Aug 14
First Quarter
Aug 20
Full
Aug 28
Last Quarter

Hourly Weather History & Observations

Time (EDT) Temp. Heat Index Dew Point Humidity Pressure Visibility Wind Dir Wind Speed Gust Speed Precip Events Conditions
12:58 AM 70.9 °F - 69.6 °F 96% 30.04 in 10.0 mi Calm Calm - N/A   Clear
1:58 AM 69.4 °F - 69.1 °F 99% 30.04 in 10.0 mi Calm Calm - N/A   Clear
2:58 AM 68.0 °F - 67.6 °F 99% 30.04 in 10.0 mi NE 2.3 mph - N/A   Clear
3:58 AM 68.4 °F - 68.0 °F 99% 30.02 in 10.0 mi Calm Calm - N/A   Clear
4:58 AM 68.2 °F - 67.8 °F 99% 30.02 in 10.0 mi ENE 1.2 mph - N/A   Clear
5:58 AM 66.4 °F - 66.2 °F 99% 30.04 in 10.0 mi NNE 2.3 mph - N/A   Partly Cloudy
6:58 AM 67.6 °F - 67.5 °F 99% 30.06 in 10.0 mi ENE 2.3 mph - N/A   Scattered Clouds
7:58 AM 70.5 °F - 68.4 °F 93% 30.09 in 10.0 mi ENE 4.6 mph - N/A   Partly Cloudy
8:22 AM 73.4 °F - 66.2 °F 78% 30.08 in 10.0 mi ENE 8.1 mph - N/A Rain Light Rain
8:32 AM 73.4 °F - 66.2 °F 78% 30.08 in 10.0 mi East 5.8 mph - N/A   Partly Cloudy
8:58 AM 73.6 °F - 66.7 °F 79% 30.09 in 10.0 mi NE 4.6 mph - 0.00 in   Partly Cloudy
9:58 AM 77.4 °F - 66.4 °F 69% 30.09 in 10.0 mi East 5.8 mph - N/A   Clear
10:58 AM 79.7 °F - 62.6 °F 56% 30.09 in 10.0 mi East 4.6 mph - N/A   Clear
11:58 AM 81.3 °F 82.2 °F 61.5 °F 51% 30.09 in 10.0 mi East 8.1 mph - N/A   Clear
12:58 PM 82.8 °F 83.0 °F 60.3 °F 46% 30.09 in 10.0 mi SE 4.6 mph - N/A   Clear
1:58 PM 83.5 °F 83.9 °F 61.5 °F 47% 30.06 in 10.0 mi Variable 4.6 mph - N/A   Partly Cloudy
2:58 PM 84.4 °F 84.6 °F 61.2 °F 45% 30.04 in 10.0 mi South 5.8 mph - N/A   Clear
3:58 PM 83.1 °F 83.9 °F 62.2 °F 49% 30.03 in 10.0 mi ESE 4.6 mph - N/A   Partly Cloudy
4:58 PM 83.7 °F 84.7 °F 63.0 °F 50% 30.02 in 10.0 mi SSE 4.6 mph - N/A   Clear
5:58 PM 83.5 °F 84.3 °F 62.6 °F 49% 30.01 in 10.0 mi SE 4.6 mph - N/A   Clear
6:58 PM 82.4 °F 83.7 °F 63.5 °F 53% 30.01 in 10.0 mi SE 2.3 mph - N/A   Scattered Clouds
7:58 PM 80.6 °F 82.2 °F 64.0 °F 57% 30.01 in 10.0 mi ESE 2.3 mph - N/A   Partly Cloudy
8:33 PM 78.8 °F - 68.0 °F 69% 30.02 in 10.0 mi East 4.6 mph - N/A   Partly Cloudy
8:34 PM 78.8 °F - 68.0 °F 69% 30.02 in 10.0 mi East 4.6 mph - N/A Rain Light Rain
8:53 PM 78.8 °F - 66.2 °F 65% 30.03 in 10.0 mi SE 3.5 mph - N/A   Partly Cloudy
8:58 PM 79.5 °F - 66.4 °F 64% 30.04 in 10.0 mi SE 3.5 mph - 0.00 in   Scattered Clouds
9:58 PM 78.8 °F - 65.3 °F 63% 30.04 in 10.0 mi SSE 6.9 mph - N/A   Clear
10:58 PM 77.0 °F - 63.3 °F 63% 30.04 in 10.0 mi South 8.1 mph - N/A   Clear
11:58 PM 75.2 °F - 63.3 °F 66% 30.06 in 10.0 mi South 6.9 mph - N/A   Clear